PD1VW-10 Weather Reports


Display with metric or nautical units.
time (UTC)temp
F
wind
direction
speed
MPH
gust
MPH
rain 1hr
in
rain 24hr
in
rain mn
in
humidity
%
barometer
mb
20260507105044 58 46 5.0 8.0 0.00 0.00 0.00 61 1018.3
20260507104101 58 56 5.0 8.0 0.00 0.00 0.00 58 1018.4
20260507103038 57 39 5.0 8.0 0.00 0.00 0.00 61 1018.2
20260507102115 57 32 5.0 7.0 0.00 0.00 0.00 62 1018.4
20260507101032 57 21 5.0 8.0 0.00 0.00 0.00 57 1018.4
20260507100030 58 40 6.0 8.0 0.00 0.00 0.00 58 1018.5
20260507095027 57 43 6.0 8.0 0.00 0.00 0.00 58 1018.0
20260507094024 57 60 1.0 2.0 0.00 0.00 0.00 57 1018.2
20260507093042 57 47 2.0 4.0 0.00 0.00 0.00 60 1018.1
20260507092018 56 63 4.0 8.0 0.00 0.00 0.00 62 1018.1
20260507091036 55 20 8.0 11.0 0.00 0.00 0.00 62 1018.0
20260507090043 55 44 2.0 6.0 0.00 0.00 0.00 63 1018.0
20260507085040 55 61 4.0 6.0 0.00 0.00 0.00 61 1018.1
20260507084037 56 38 5.0 8.0 0.00 0.00 0.00 59 1018.0
20260507083034 55 58 5.0 8.0 0.00 0.00 0.00 59 1018.1
20260507082032 55 54 6.0 8.0 0.00 0.00 0.00 56 1017.9
20260507081049 55 57 5.0 7.0 0.00 0.00 0.00 59 1018.0
20260507080046 54 4 5.0 8.0 0.00 0.00 0.00 63 1018.1
20260507075023 54 37 5.0 7.0 0.00 0.00 0.00 62 1018.0
20260507074040 54 44 2.0 6.0 0.00 0.00 0.00 64 1018.0
20260507073018 53 36 2.0 4.0 0.00 0.00 0.00 63 1018.1
20260507072045 53 26 5.0 7.0 0.00 0.00 0.00 69 1018.0
20260507071042 52 17 1.0 3.0 0.00 0.00 0.00 75 1018.0
20260507070059 51 51 1.0 3.0 0.00 0.00 0.00 80 1018.0
20260507065036 51 41 4.0 6.0 0.00 0.00 0.00 83 1018.0
20260507064033 49 355 5.0 6.0 0.00 0.00 0.00 84 1017.9
20260507063030 49 4 5.0 6.0 0.00 0.00 0.00 85 1018.1
20260507062028 48 31 4.0 4.0 0.00 0.00 0.00 87 1017.9
20260507061025 47 357 4.0 4.0 0.00 0.00 0.00 89 1017.9
20260507060022 46 332 5.0 6.0 0.00 0.00 0.00 90 1017.9
20260507055019 45 266 2.0 3.0 0.00 0.00 0.00 92 1017.7
20260507054016 44 0.0 0.0 0.00 0.00 0.00 93 1017.6
20260507053043 44 0.0 0.0 0.00 0.00 0.00 94 1017.6
20260507052040 43 0.0 0.0 0.00 0.00 0.00 95 1017.5
20260507051038 42 0.0 0.0 0.00 0.00 0.00 95 1017.5
20260507050035 42 0.0 0.0 0.00 0.00 0.00 95 1017.3
20260507045032 41 0.0 0.0 0.00 0.00 0.00 95 1017.2
20260507044050 41 0.0 0.0 0.00 0.00 0.00 96 1016.9
20260507043027 41 0.0 0.0 0.00 0.00 0.00 96 1017.0
20260507042024 41 0.0 0.0 0.00 0.00 0.00 96 1017.0
20260507041021 40 0.0 0.0 0.00 0.00 0.00 96 1017.0
20260507040019 41 0.0 0.0 0.00 0.00 0.00 96 1016.9
20260507035016 41 0.0 0.0 0.00 0.00 0.00 96 1016.9
20260507034103 40 0.0 0.0 0.00 0.00 0.00 96 1016.7
20260507033040 40 0.0 0.0 0.00 0.00 0.00 96 1016.8
20260507032057 40 0.0 0.0 0.00 0.00 0.00 95 1016.6
20260507031115 40 0.0 0.0 0.00 0.00 0.00 95 1016.5
20260507030032 40 0.0 0.0 0.00 0.00 0.00 95 1016.5
20260507025029 40 0.0 0.0 0.00 0.00 0.00 95 1016.3
20260507024026 41 0.0 0.0 0.00 0.00 0.00 95 1016.3
20260507023023 41 0.0 0.0 0.00 0.00 0.00 95 1016.5
20260507022021 41 0.0 0.0 0.00 0.00 0.00 95 1016.4
20260507021018 41 0.0 0.0 0.00 0.00 0.00 95 1016.3
20260507020015 40 0.0 0.0 0.00 0.00 0.00 94 1016.0
20260507015102 40 0.0 0.0 0.00 0.00 0.00 94 1016.1
20260507014040 40 0.0 0.0 0.00 0.00 0.00 94 1015.9
20260507013037 40 0.0 0.0 0.00 0.00 0.00 93 1015.9
20260507012034 40 0.0 0.0 0.00 0.00 0.00 93 1016.1
20260507011052 41 0.0 0.0 0.00 0.00 0.00 93 1015.9
20260507010029 41 0.0 0.0 0.00 0.00 0.00 92 1015.7
20260507005026 41 268 2.0 2.0 0.00 0.00 0.00 92 1016.0
20260507004023 41 268 3.0 3.0 0.00 0.00 0.00 91 1015.8
20260507003021 41 268 4.0 4.0 0.00 0.00 0.00 91 1015.7
20260507002018 41 268 5.0 6.0 0.00 0.00 0.00 90 1015.8
20260507001015 42 268 5.0 6.0 0.00 0.00 0.00 90 1015.8
20260507000042 42 268 0.0 1.0 0.00 0.00 0.00 89 1015.7
20260506235040 43 268 0.0 1.0 0.00 0.00 0.00 88 1015.7
20260506234057 43 0.0 0.0 0.00 0.00 0.00 88 1015.9
20260506233034 44 267 0.0 1.0 0.00 0.00 0.00 87 1015.8
20260506232031 43 267 0.0 1.0 0.00 0.00 0.00 87 1015.8
20260506231029 44 267 1.0 2.0 0.00 0.00 0.00 87 1015.4
20260506230026 44 0.0 0.0 0.00 0.00 0.00 86 1015.5
20260506225022 45 0.0 0.0 0.00 0.00 0.00 85 1015.6
20260506224020 45 267 0.0 1.0 0.00 0.00 0.00 85 1015.4
20260506223017 45 267 2.0 6.0 0.00 0.00 0.00 87 1015.4
20260506222045 44 267 0.0 1.0 0.00 0.00 0.00 88 1015.4
20260506221042 45 267 0.0 1.0 0.00 0.00 0.00 88 1015.3
20260506220059 45 0.0 0.0 0.00 0.00 0.00 88 1015.2
20260506215036 46 267 0.0 1.0 0.00 0.00 0.00 87 1015.2
20260506214033 47 267 2.0 3.0 0.00 0.00 0.00 86 1015.2
20260506213050 47 267 5.0 6.0 0.00 0.00 0.00 85 1014.9
20260506212028 48 266 6.0 8.0 0.00 0.00 0.00 84 1014.8
20260506211025 48 266 7.0 11.0 0.00 0.00 0.00 84 1014.8
20260506210022 49 266 9.0 11.0 0.00 0.00 0.00 84 1014.8
20260506205020 49 266 7.0 10.0 0.00 0.00 0.00 83 1014.8
20260506204037 49 266 5.0 7.0 0.00 0.00 0.00 82 1014.6
20260506203044 49 266 4.0 6.0 0.00 0.00 0.00 82 1014.8
20260506202041 49 266 5.0 7.0 0.00 0.00 0.00 82 1014.6
20260506201038 49 266 6.0 8.0 0.00 0.00 0.00 81 1014.6
20260506200035 49 266 5.0 7.0 0.00 0.00 0.00 80 1014.5
20260506195032 49 266 5.0 8.0 0.00 0.00 0.00 79 1014.3
20260506194030 50 266 6.0 8.0 0.00 0.00 0.00 78 1014.4
20260506193027 51 266 7.0 8.0 0.00 0.00 0.00 77 1014.0
20260506192025 51 266 9.0 11.0 0.00 0.00 0.00 75 1013.9
20260506191022 52 266 10.0 13.0 0.00 0.00 0.00 73 1013.7
20260506190019 53 266 10.0 14.0 0.00 0.00 0.00 73 1013.5
20260506185016 53 267 13.0 16.0 0.00 0.00 0.00 72 1013.2
20260506184044 54 269 15.0 19.0 0.00 0.00 0.00 69 1013.3
20260506183040 54 296 13.0 15.0 0.00 0.00 0.00 67 1013.3
20260506182038 54 352 12.0 17.0 0.00 0.00 0.00 66 1013.2
20260506181035 54 28 9.0 14.0 0.00 0.00 0.00 67 1013.0
20260506180033 54 43 9.0 10.0 0.00 0.00 0.00 65 1012.8
20260506175030 55 25 13.0 18.0 0.00 0.00 0.00 67 1012.8
20260506174027 55 28 15.0 22.0 0.00 0.00 0.00 65 1012.7
20260506173043 55 47 12.0 17.0 0.00 0.00 0.00 66 1012.4
20260506172021 56 32 13.0 16.0 0.00 0.00 0.00 65 1012.5
20260506171018 56 35 17.0 21.0 0.00 0.00 0.00 65 1012.4
20260506170016 56 16 19.0 24.0 0.00 0.00 0.00 65 1012.3
20260506165042 56 20 16.0 19.0 0.00 0.00 0.00 65 1012.3
20260506164040 57 17 17.0 23.0 0.00 0.00 0.00 65 1012.3
20260506163037 57 37 19.0 24.0 0.00 0.00 0.00 65 1012.2
20260506162034 57 19 19.0 22.0 0.00 0.00 0.00 66 1012.0
20260506161032 57 42 17.0 21.0 0.00 0.00 0.00 64 1012.1
20260506160028 57 35 14.0 19.0 0.00 0.00 0.00 66 1012.1
20260506155025 57 47 18.0 21.0 0.00 0.00 0.00 64 1012.0
20260506154103 58 38 15.0 18.0 0.00 0.00 0.00 64 1012.1
20260506153040 58 43 19.0 23.0 0.00 0.00 0.00 65 1012.0
20260506152018 58 38 14.0 18.0 0.00 0.00 0.00 67 1011.9
20260506151125 57 34 16.0 23.0 0.00 0.00 0.00 67 1011.9
20260506150042 57 30 18.0 24.0 0.00 0.00 0.00 67 1011.9
20260506145059 58 102 14.0 21.0 0.00 0.00 0.00 64 1011.9
20260506144037 58 31 17.0 22.0 0.00 0.00 0.00 65 1011.8
20260506143034 58 30 17.0 19.0 0.00 0.00 0.00 64 1011.9
20260506142031 57 34 16.0 19.0 0.00 0.00 0.00 65 1011.9
20260506141029 57 30 17.0 22.0 0.00 0.00 0.00 65 1011.9
20260506140026 57 42 14.0 18.0 0.00 0.00 0.00 65 1011.8
20260506135023 57 42 18.0 21.0 0.00 0.00 0.00 65 1011.8
20260506134020 58 40 15.0 18.0 0.00 0.00 0.00 64 1011.6
20260506133018 57 40 18.0 23.0 0.00 0.00 0.00 65 1011.6
20260506132035 57 39 13.0 19.0 0.00 0.00 0.00 65 1011.6
20260506131042 58 63 12.0 18.0 0.00 0.00 0.00 67 1011.7
20260506130040 58 11 11.0 14.0 0.00 0.00 0.00 68 1011.6
20260506125057 57 34 15.0 19.0 0.00 0.00 0.00 67 1011.6
20260506124055 57 47 15.0 17.0 0.00 0.00 0.00 65 1011.5
20260506123032 57 23 13.0 18.0 0.00 0.00 0.00 67 1011.4
20260506122029 57 29 15.0 22.0 0.00 0.00 0.00 64 1011.6
20260506121026 58 355 10.0 13.0 0.00 0.00 0.00 65 1011.4
20260506120023 58 41 8.0 9.0 0.00 0.00 0.00 61 1011.4
20260506115021 57 57 9.0 13.0 0.00 0.00 0.00 58 1011.5
20260506114018 59 38 12.0 16.0 0.00 0.00 0.00 61 1011.4
20260506113035 57 38 13.0 16.0 0.00 0.00 0.00 61 1011.5
20260506112043 58 75 16.0 21.0 0.00 0.00 0.00 62 1011.5
20260506111040 57 30 13.0 16.0 0.00 0.00 0.00 67 1011.4
20260506110037 58 52 13.0 16.0 0.00 0.00 0.00 65 1011.4